This is the latest recevied weather packets stored in our database for station/object K3BAY-1. If no packets are shown the sender has not sent any weather packets the latest 1 day(s).
| Time | Temp. | Humidity | Pressure | Rain* | Wind** | Luminosity | Snow |
|---|---|---|---|---|---|---|---|
| 1778096321 | 22.78° C | 74% | 1008.1 hPa | 0 mm | - | 381 W/m² | - |
| 1778094804 | 22.22° C | 76% | 1008.1 hPa | 0 mm | - | 331 W/m² | - |
| 1778094501 | 22.78° C | 75% | 1008.1 hPa | 0 mm | - | 375 W/m² | - |
| 1778092075 | 20.56° C | 79% | 1008.1 hPa | 0 mm | - | 264 W/m² | - |
| 1778091772 | 20.56° C | 79% | 1008.1 hPa | 0 mm | - | 274 W/m² | - |
| 1778091470 | 20.56° C | 80% | 1008.1 hPa | 0 mm | - | 283 W/m² | - |
| 1778090560 | 20.56° C | 80% | 1008.1 hPa | 0 mm | - | 220 W/m² | - |
| 1778089046 | 20° C | 83% | 1008.1 hPa | 0 mm | - | 198 W/m² | - |
| 1778086623 | 18.33° C | 89% | 1008.1 hPa | 0 mm | - | 213 W/m² | - |
| 1778085714 | 17.78° C | 92% | 1008.1 hPa | 0 mm | - | 155 W/m² | - |
| 1778085410 | 17.78° C | 93% | 1008.1 hPa | 0 mm | - | 151 W/m² | - |
| 1778083591 | 16.67° C | 96% | 1008.1 hPa | 0 mm | - | 187 W/m² | - |
| 1778081545 | 16.11° C | 97% | 1008.4 hPa | 0 mm | - | 119 W/m² | - |
| 1778080334 | 16.11° C | 96% | 1008.4 hPa | 3.56 mm | - | 112 W/m² | - |
| 1778077911 | 16.67° C | 92% | 1008.4 hPa | 1.27 mm | - | 73 W/m² | - |
| 1778076097 | 17.78° C | 86% | 1008.1 hPa | 1.78 mm | - | 58 W/m² | - |
| 1778075490 | 18.33° C | 83% | 1008.4 hPa | 0 mm | - | 74 W/m² | - |
| 1778074882 | 18.33° C | 81% | 1008.4 hPa | 0 mm | - | 49 W/m² | - |
| 1778074580 | 18.33° C | 81% | 1008.4 hPa | 0 mm | - | 64 W/m² | - |
| 1778070040 | 18.89° C | 78% | 1008.1 hPa | 0 mm | - | 52 W/m² | - |
| 1778069433 | 18.89° C | 77% | 1007.7 hPa | 0 mm | - | 28 W/m² | - |
| 1778068526 | 18.89° C | 77% | 1008.1 hPa | 0 mm | - | 18 W/m² | - |
| 1778068225 | 18.89° C | 76% | 1007.7 hPa | 0 mm | - | 26 W/m² | - |
| 1778067620 | 19.44° C | 76% | 1007.7 hPa | 0 mm | - | 45 W/m² | - |
| 1778067015 | 18.89° C | 77% | 1008.1 hPa | 0 mm | - | 65 W/m² | - |
* Rain latest hour (hover to see other rain measurements)
** Current wind speed in m/s (hover to see current wind gust speed)